Portada
METAR-TAF:

METAR-TAF

Aeroports :

Holland, Michigan, Estats Units d'Amèrica

latitud: 42-44-46N, longitud: 086-05-48W, altitud: 209 m

Observació

L'informe es va fer fa 19 minuts, a les 17:53 UTC
Vent 9 kt del Oest/Sud-Oest
Temperatura 2°C
Humitat 64%
Pressió 1023 hPa
Visibilitat: 16.1 km
Cel cobert a una alçada de 2400 ft

METAR: KBIV 101753Z AUTO 25009KT 10SM OVC024 02/M04 A3021 RMK AO2 SLP239 T00171044 10022 21017 58012

Hora: 13:12 (18:12 UTC)


TAF: manca

Observacions i pronòstics meteorològics de més de 4000 aeroports (METAR i TAF).

Les estacions disponibles són els punts grocs i vermells al mapa.

Posi el ratolí al punt desitjat per veure el nom de l'estació.

Feu clic per veure les observacions i els pronòstics meteorològics.

Per canviar el mapa: feu clic els botons verds amb una creu de color negre per apropar; al botó verd amb un guió per allunyar la imatge; o en les fletxes verdes per a mapes adjacents.


METAR-TAF: